Regional Weather Roundup
Issued by NWS

Home | Current Version | Previous Version | Graphics & Text | Print | Product List | Glossary On
Versions: 1 2 3 4 5 6 7 8 9 10 11 12 13 14 15 16 17 18 19 20 21 22 23 24 25 26 27 28 29 30 31 32 33 34 35 36 37 38 39 40 41 42 43 44 45 46 47 48 49 50
000
ASUS43 KLOT 292308
RWRIL

ILLINOIS REGIONAL WEATHER ROUNDUP
NATIONAL WEATHER SERVICE CHICAGO/ROMEOVILLE IL
600 PM CDT WED JUL 29 2015

NOTE: "FAIR" INDICATES FEW OR NO CLOUDS BELOW 12,000 FEET WITH NO
SIGNIFICANT WEATHER AND/OR OBSTRUCTIONS TO VISIBILITY.

* THESE STATIONS ARE NOT UNDER NWS QUALITY CONTROL. THEY ALSO MAY NOT
  REPORT WEATHER SUCH AS PRECIPITATION OR FOG.

ILZ001-002-007-009-015-016-024-300000-
NORTHWEST ILLINOIS

CITY           SKY/WX    TMP DP  RH WIND       PRES   REMARKS
MOLINE         SUNNY     83  57  41 W15       30.03F HX  82
STERLING*      SUNNY     82  59  44 W13       30.00F HX  82
SAVANNA*       SUNNY     83  54  35 W8        30.01S HX  82
$$

ILZ003-004-008-010-011-017-018-300000-
NORTH CENTRAL ILLINOIS

CITY           SKY/WX    TMP DP  RH WIND       PRES   REMARKS
ROCKFORD       MOSUNNY   83  55  38 W14       30.00S HX  82
FREEPORT*      SUNNY     80  55  41 W13       30.02S HX  80
ROCHELLE*      SUNNY     81  58  45 W14       30.01S HX  81
DE KALB*       SUNNY     81  58  45 W13G22    30.01S HX  81
PERU*          SUNNY     81  52  37 W16       30.02S HX  80
$$

ILZ005-006-012>014-019>023-300000-
NORTHEAST ILLINOIS

CITY           SKY/WX    TMP DP  RH WIND       PRES   REMARKS
CHICAGO-OHARE  MOSUNNY   84  52  33 W15G21    29.96S HX  82
CHICAGO-MIDWAY MOSUNNY   86  52  30 W16       29.96S HX  84
AURORA         SUNNY     82  57  42 W15       30.00R HX  82
LANSING*       SUNNY     84  45  25 W10G21    29.97S HX  82
JOLIET*        SUNNY     84  58  40 W10G20    29.99S HX  84
WAUKEGAN       SUNNY     82  51  34 W9G21     29.94S HX  81
DUPAGE AIRPORT SUNNY     82  50  32 NW14G23   29.98S HX  81
KANKAKEE*      SUNNY     82  58  44 NW9G17    30.00S HX  82
WHEELING       SUNNY     85  47  26 W16G24    29.97S HX  82
MORRIS*        SUNNY     81  61  50 W10G18    29.99S HX  82
ROMEOVILLE*    SUNNY     82  55  39 W13G20    29.99S HX  81
NORTHERLY ISL    N/A     85  49  28 W8          N/A  HX  83
$$

LMZ740>746-300000-
SOUTHERN LAKE MICHIGAN

STATION/POSITION SKY/WX   TEMP    WIND        PRES    VSBY  WAVE
                          AIR SEA DIR/SP/G                  HT/PER
                          (F)     (DEG/KT/KT) (MB)    (MI)  (FT/S)
HARRISON CRIB              83     290/ 14/ 17   N/A
BURNHAM HARBOR             85     280/  7/ 16   N/A
CALUMET HARBOR             87                   N/A
BURNS HARBOR               84      60/  3/  3 1014.9S
MICHIGAN CITY              81     270/  2/  4   N/A
MICHIGAN CITY 6N           80 78  300/  2/  2   N/A           1
ST. JOSEPH                 78 76  350/ 10/ 12   N/A           1/ 2
$$

ILZ025>027-034>036-040-047-049-050-058-095>099-300000-
WEST-CENTRAL ILLINOIS

CITY           SKY/WX    TMP DP  RH WIND       PRES   REMARKS
QUINCY         SUNNY     82  61  48 NW8       30.08F HX  83
GALESBURG*     SUNNY     81  60  50 W8        30.06F HX  81
MACOMB*        SUNNY     82  60  47 NW7       30.09S HX  82
JACKSONVILLE*  SUNNY     84  64  49 NW6       30.06S HX  85
PITTSFIELD*    SUNNY     83  56  39 N6        30.09S HX  82
$$

ILZ028>032-037-038-041>044-048-051>054-059>061-300000-
CENTRAL ILLINOIS

CITY           SKY/WX    TMP DP  RH WIND       PRES   REMARKS
PONTIAC        SUNNY     81  65  57 W16       30.02F HX  83
BLOOMINGTON    SUNNY     84  59  42 NW10      30.04F HX  84
DECATUR        SUNNY     85  62  46 N16       30.02S HX  85
PEORIA         SUNNY     84  57  39 NW7       30.05S HX  83
LACON*         SUNNY     82  57  43 W8        30.02F HX  81
LINCOLN*       SUNNY     85  53  33 NW7       30.03S HX  83
SPRINGFIELD    SUNNY     86  62  44 N10       30.05R HX  86
TAYLORVILLE    SUNNY     82  68  61 NW12      30.03S HX  85
$$

ILZ033-039-045-046-055>057-062-063-300000-
EAST-CENTRAL ILLINOIS

CITY           SKY/WX    TMP DP  RH WIND       PRES   REMARKS
CHAMPAIGN      MOSUNNY   83  64  52 NW12      30.01F HX  84
DANVILLE*      PTSUNNY   82  70  68 NW10      29.97S HX  85
RANTOUL*       MOSUNNY   84  66  55 NW13      30.01S HX  86
MATTOON        PTSUNNY   85  64  49 N17       29.99S HX  86
PARIS*         CLOUDY    84  71  65 NW12      29.99S HX  90
$$

ILZ079-100>102-300000-
SOUTHWEST ILLINOIS

CITY           SKY/WX    TMP DP  RH WIND       PRES   REMARKS
ALTON          MOSUNNY   84  66  54 N12       30.03F HX  86
BELLEVILLE     SUNNY     87  76  68 NW7       30.00F HX  97
CAHOKIA*       MOSUNNY   89  70  53 N17       30.02S HX  94
SPARTA*        MOSUNNY   87  75  67 N10       30.01S HX  96
$$

ILZ064>066-069>071-074>076-080>082-084>086-088>090-092>094-300000-
SOUTH-CENTRAL ILLINOIS

CITY           SKY/WX    TMP DP  RH WIND       PRES   REMARKS
CARBONDALE     CLOUDY    86  76  71 NW7       29.99R HX  96
CAIRO*         PTSUNNY   87  78  75 NW9       29.96S HX  99
EFFINGHAM*     PTSUNNY   86  70  59 NW13G18   30.01R HX  90
MARION         PTSUNNY   88  77  70 NW9       29.99R HX 100
MT. VERNON     MOSUNNY   88  73  62 NW5       29.99S HX  96
CENTRALIA*     MOSUNNY   86  72  63 NW9       30.00S HX  92
SALEM*         MOSUNNY   87  75  67 NW8       30.00S HX  96
METROPOLIS*    CLOUDY    81  80  96 NW3       29.97S HX  91
$$

ILZ067-068-072-073-078-083-087-091-300000-
SOUTHEAST ILLINOIS

CITY           SKY/WX    TMP DP  RH WIND       PRES   REMARKS
LAWRENCEVILLE  CLOUDY    82  78  88 NW6       29.97R HX  91
FLORA*         CLOUDY    87  74  66 NW9       29.98R HX  96
FAIRFIELD*     PTSUNNY   88  78  72 NW10      29.95S HX 101
HARRISBURG*    PTSUNNY   88  77  69 NW8       29.98R HX  99
ROBINSON*      CLOUDY    84  76  77 NW3       29.97S HX  93
CARMI*         CLOUDY    83  74  73 MISG      29.96R HX  90
$$

ABBREVIATIONS USED IN REMARKS
   TC - TEMPERATURE IN CELSIUS
  WCI - WIND CHILL INDEX
   HX - HEAT INDEX
  VSB - VISIBILITY
$$



USA.gov is the U.S. government's official web portal to all federal, state and local government web resources and services.